PROMETHEUS 2-1 (41854 NORAD) Tracking and Keplerian Element Data

This shows tracking and keplerian element data for the satellite.

Feedback or suggestion? Click here.




ElementValue
Catalog41854
NamePROMETHEUS 2-1
Epoch Orbit45098
Epoch Day34.49808849
Epoch Year2025
RAAN234.3336
Inclination98.0912
Eccentricity0.0009245
Argument of Perigee342.2866
Mean Anonmoly17.8052
Mean Motion15.34704189
Decay Rate0.00042286
L11 41854U 16067G 25034.49808849 .00042286 00000+0 12526-2 0 9995
L22 41854 98.0912 234.3336 0009245 342.2866 17.8052 15.34704189450989



Live tracking and technical data element details for PROMETHEUS 2-1 (NORAD 41854). PROMETHEUS 2-1 can be tracked NOW for your location showing map with azimuth and elevation plus other details from your city location.







IsCatalogInMostPopularTable: catalog: 41854, numindb: 523
Update: records affected: 1



GetName: 41854 PROMETHEUS 2-1

Hit Count: updated at: Thu, 22 May 2025 03:10:55 GMT